Retour au catalogue

STARLINK-2355

ActifCommunicationsVLEO
NORAD 47895·PAYLOAD·🇺🇸 United States

Lancé Mar 14, 2021 depuis Cape Canaveral Space Force Station

Loading…

Prochains Passages (prochaines 24 heures)

TLE

FraisSource: CelesTrak SupGP

Époque: Sep 15, 2026, 01:47 UTC

1 47895C 21021AM  26258.07479167  .00038738  00000+0  12458-2 0  2581
2 47895  53.1568 106.8035 0001291  82.8468 254.6187 15.31681208    14

Suivez STARLINK-2355 en temps réel avec AllMySat

Download on the App Store